Location: Brantley
(31.5822°N, 86.2569°W)
Time: 19:32:43
(UTC+00:00)

Courier 1B Rocket - Pass Details

Date: 23 February 2026
Orbit: 920 x 1201 km, 28.2° (Epoch: 10 March)

Event Time Altitude Azimuth Distance (km) Brightness Sun altitude
Rises 21:44:17 0° 235° (SW) 3,673 9.5 22.1°
Reaches altitude 10° 21:47:10 10° 228° (SW) 2,688 9.0 21.6°
Maximum altitude 21:53:03 38° 162° (SSE) 1,384 6.1 20.5°
Drops below altitude 10° 21:58:45 10° 95° (E) 2,605 6.8 19.4°
Sets 22:01:30 0° 88° (E) 3,546 7.4 18.8°
